Home > Weather > Erfurt > Past weeks

Flag for Germany Past Weather in Erfurt, Thuringia, Germany — Yesterday and Last 2 Weeks

Now
66 °F

Clear.


Feels Like: 66 °F
Forecast: 64 / 75 °F
Wind: 6 mph from West

Location: Erfurt-Bindersleben

Current Time: Jun 25, 2016 at 12:18:52 AM

Latest Report: Jun 24, 2016 at 11:50 PM


Visibility: 10 mi

Pressure: 30.01 "Hg

Humidity: 88%

Dew Point: 63 °F

Location of ErfurtLocation

Past Weather in Erfurt — Graph

°F

Erfurt Temperature Yesterday

Maximum temperature yesterday: 91 °F (at 3:50 PM)
Minimum temperature yesterday: 66 °F (at 10:20 PM)
Average temperature yesterday: 76 °F

High & Low Weather Summary for the Past Weeks

 TemperatureHumidityPressure
High91 °F (Jun 24, 3:50 PM)100% (Jun 10, 2:20 AM)30.24 "Hg (Jun 10, 2:20 AM)
Low46 °F (Jun 20, 5:20 AM)31% (Jun 23, 4:20 PM)29.50 "Hg (Jun 14, 5:20 PM)
Average63 °F75%29.90 "Hg
* Reported Jun 9 11:20 PM — Jun 24 11:20 PM, Erfurt, Weather by CustomWeather, © 2016

Note: Actual official high and low records may vary slightly from our data, if they occured in-between our weather recording intervals... More about our weather records

Advertising

Erfurt Weather History for the Previous 24 Hours

Scroll right to see more
 ConditionsComfort  
Time TempWeatherWind HumidityBarometerVisibility
11:20 PM
Fri, Jun 24
66 °FClear.5 mph88%30.01 "Hg10 mi
10:50 PM68 °FClear.5 mph78%30.04 "Hg10 mi
10:20 PM66 °FSunny.8 mph88%30.04 "Hg10 mi
9:50 PM68 °FSunny.8 mph83%30.04 "Hg10 mi
9:20 PM70 °FSunny.8 mph83%30.04 "Hg10 mi
8:50 PM72 °FSunny.7 mph78%30.04 "Hg10 mi
8:20 PM72 °FSunny.7 mph73%30.04 "Hg10 mi
7:50 PM73 °FPassing clouds.3 mph69%30.04 "HgN/A
7:20 PM72 °FSunny.3 mph78%30.04 "Hg10 mi
6:50 PM70 °FPassing clouds.7 mph78%30.04 "HgN/A
6:20 PM70 °FPassing clouds.15 mph78%30.04 "HgN/A
5:50 PM75 °FScattered clouds.25 mph65%30.04 "HgN/A
5:20 PM86 °FPassing clouds.5 mph49%29.98 "HgN/A
4:50 PM91 °FPassing clouds.8 mph34%29.98 "HgN/A
4:20 PM91 °FSunny.8 mph38%29.98 "Hg10 mi
3:50 PM91 °FPassing clouds.8 mph36%29.98 "HgN/A
3:20 PM90 °FSunny.7 mph46%30.01 "Hg10 mi
2:50 PM90 °FPassing clouds.10 mph49%30.01 "HgN/A
2:20 PM88 °FPassing clouds.10 mph52%30.04 "HgN/A
1:50 PM86 °FPassing clouds.12 mph55%30.04 "HgN/A
1:20 PM86 °FPassing clouds.10 mph59%30.04 "HgN/A
12:50 PM84 °FPassing clouds.10 mph58%30.07 "HgN/A
12:20 PM84 °FPassing clouds.9 mph62%30.07 "HgN/A
11:50 AM84 °FPassing clouds.6 mph58%30.07 "HgN/A
11:20 AM82 °FPassing clouds.5 mph62%30.07 "HgN/A
10:50 AM82 °FPassing clouds.5 mph58%30.07 "HgN/A
10:20 AM81 °FPassing clouds.3 mph58%30.07 "HgN/A
9:50 AM79 °FPassing clouds.3 mph65%30.09 "HgN/A
9:20 AM79 °FSunny.2 mph61%30.09 "Hg10 mi
8:50 AM75 °FSunny.2 mph69%30.09 "Hg10 mi
8:20 AM75 °FPassing clouds.5 mph65%30.09 "HgN/A
7:50 AM73 °FPassing clouds.3 mph74%30.09 "HgN/A
7:20 AM72 °FSunny.2 mph73%30.09 "Hg10 mi
6:50 AM72 °FSunny.2 mph73%30.09 "Hg10 mi
6:20 AM70 °FSunny.2 mph73%30.09 "Hg10 mi
5:50 AM68 °FPassing clouds.3 mph78%30.09 "HgN/A
5:20 AM68 °FPassing clouds.6 mph78%30.07 "HgN/A
4:50 AM70 °FClear.2 mph73%30.07 "Hg10 mi
4:20 AM70 °FClear.8 mph73%30.07 "Hg10 mi
3:50 AM70 °FClear.6 mph73%30.07 "Hg10 mi
3:20 AM73 °FClear.10 mph65%30.07 "Hg10 mi
2:50 AM73 °FClear.12 mph65%30.07 "Hg10 mi
2:20 AM73 °FClear.12 mph65%30.09 "Hg10 mi
1:50 AM73 °FClear.9 mph65%30.09 "Hg10 mi
1:20 AM73 °FClear.10 mph65%30.09 "Hg10 mi
12:50 AM73 °FClear.9 mph65%30.09 "Hg10 mi
12:20 AM72 °FClear.9 mph69%30.09 "Hg10 mi
Weather by CustomWeather, © 2016

See weather overviewHow to use our weather pages